STARLINK-11245 [DTC]

Last updated on Tue Oct 01 2024 00:02:04 GMT+0000 (Coordinated Universal Time)

1 60925U 24155B 24274.41692874 -.00016516 00000+0 -97171-4 0 9998 2 60925 53.1519 51.3060 0000669 73.1654 286.9440 15.76716058 5891
UTC large
Height (km)
Speed (km/s)
/
Latitude / Longitude
Inclination (degrees)
Orbital Period (minutes)
Azimuth
Elevation
Range (km)
Doppler Factor

Next 0 passes for location: London (51.5072 / 0.1276)

Sorry there are no passes over London.